Weather in Nemino-3

Russia / Republic of Karelia     62°36′58″N   35°48′14″E
temp.,
°C
wind,
m/s
gust,
m/s
humid.,
%
clouds,
%
prec.,
mm/h
press.,
hPa
HPBL,
m
3 march, wed
wed300:00−8wnw379122 0.0 1009140
03:00−8w379512 0.0 1009135
06:00−6w389665 0.1 1007278
09:00−4wnw5119483 0.6 1006509
12:00−3wnw5989100 0.1 1003487
15:00−1w499099 0.1 1001641
18:00−2w4895100 0.8 997458
21:00−3w2398100 2.8 996128
4 march, thu
thu400:00−4n41090100 3.6 996380
03:00−10nnw369472 3.6 999133
06:00−12nnw33960 0.0 99950
09:00−12nw24961 0.0 1000133
12:00−8wnw249255 0.0 1000314
15:00−7wnw349277 0.1 1001372
18:00−8wnw3396100 0.1 100170
21:00−10nw339697 0.1 100270
5 march, fri
fri500:00−13nw239728 0.0 100221
03:00−11nnw379563 0.2 1004205
06:00−15n339468 0.0 100540
09:00−16nnw269547 0.0 1007159
12:00−11nnw368532 0.0 1009496
15:00−10wnw358316 0.0 1010509
18:00−13w239663 0.0 101023
21:00−13w239782 0.1 101143
6 march, sat
sat600:00−14wnw339897 0.1 101138
03:00−15wnw229789 0.1 101120
06:00−16w229886 0.0 101120
09:00−15sw229693 0.1 101059
12:00−11s2493100 0.0 1008219
15:00−10s5993100 0.0 1004384
18:00−8s51193100 0.1 1000538
21:00−7s71394100 1.1 994774
7 march, sun
sun700:00−7sse71393100 1.0 989778
03:00−6se61294100 2.3 985682
06:00−6ese51094100 1.4 982529
09:00−7e61190100 1.7 981519
12:00−6ene71287100 0.3 983753
15:00−8ne81385100 0.4 986844
18:00−10nne7138799 0.1 990819
21:00−11nne61485100 0.2 994730